IRIDIUM 33 DEB, 38228

Orbit data source: Space-Track

IRIDIUM 33 DEB, 38228 is space debris in LEO originally from a launch on Sun, 14 Sep 1997 UTC launched from the Tyuratam Missile And Space Complex (TTMTR). The debris from Iridium 33, an American commercial communications satellite, has been tracked extensively since its accidental collision with the defunct Russian satellite Cosmos 2251 in 2009. This event, occurring at high speed in low Earth orbit (LEO), generated thousands of pieces of space debris, significantly increasing the risk of further collisions. The Iridium 33 debris cloud has impacted space traffic management and orbital debris mitigation strategies, making it a subject of ongoing study in space situational awareness.

Loading next visibility...
Identifier
38228, 1997-051ZC
Orbit
LEO
Country
Flag of USUS
Related business
Manufacturer
Unknown
Mission
Spacecraft
Bus & Motor
Unknown
Mass
Unknown
Launch date (UTC)
1997-09-14 (29 years ago)
Launch vehicle
Unknown
Launch site
Tyuratam Missile And Space Complex (TTMTR)
Object type
Payload
Rocket body
Debris
Shape & HBR
Unknown shape, 0.1 m
Radar Cross Section
Small (<0.1 m²)

Expand to show TLE details & history
Last TLE update: 2 days ago

TLE from 2 days ago
0 IRIDIUM 33 DEB
1 38228U 97051ZC  26207.55022010  .00000992  00000-0  38673-3 0  9997
2 38228  86.2966 312.4570 0064135 181.4837 191.5774 14.27640061880039
Epoch: 2026-07-26T13:12Z
TLE epoch observation values (Epoch: 2026-07-26T13:12:19.016Z)
Latitude
12.84769°
Longitude
170.97261°
Altitude
847.036 km
Speed
7.407 km/s
True Right ascension
20h 53m 11s
True Declination
12° 46' 27"
Sunlit
Object was in full shadow at epoch
Visualization orbit readout
Latitude
Unknown
Longitude
Unknown
Altitude
Unknown
Speed
Unknown
Apparent Right ascension
Unknown
Apparent Declination
Unknown
Sunlit
N/A
Visualization observer readout
Local Sidereal Time
22:04:31
Azimuth
Unknown
Elevation
Unknown
Doppler factor
Unknown
Orbital elements
Apogee altitude
842.621 km
Perigee altitude
750.59 km
Semi-major axis
7,174.743 km
Eccentricity
0.00641
Inclination
86.2966°
RAAN
312.457°
Arg. of periapsis
181.4837°
True anomaly
191.43106°
Mean anomaly
191.5774°
Eccentric anomaly
191.50411°
Mean motion
3.57136 °/min
Orbital period
100.8 mins
BSTAR
0.00038673
Loading maneuver chart data...
Computing Atmospheric mass density...

Documentation

Showing up to 5 results
|